Location: ??
(35.4824°N, 139.4679°E)
Time: 21:28:14
(UTC+00:00)

Cosmos 1703 - Pass Details

Date: 29 October 2020
Orbit: 525 x 538 km, 82.5° (Epoch: 24 November)

Event Time Altitude Azimuth Distance (km) Brightness Sun altitude
Rises 20:06:59 0° 175° (S) 2,641 7.0 -11.7°
Reaches altitude 10° 20:09:09 10° 170° (S) 1,758 6.1 -11.3°
Maximum altitude 20:12:54 51° 94° (E) 664 4.2 -10.6°
Drops below altitude 10° 20:16:41 10° 18° (NNE) 1,775 6.0 -9.8°
Sets 20:18:52 0° 13° (NNE) 2,671 6.9 -9.4°
